TimeEST,TemperatureF,Dew PointF,Humidity,Sea Level PressureIn,VisibilityMPH,Wind Direction,Wind SpeedMPH,Gust SpeedMPH,PrecipitationIn,Events,Conditions,WindDirDegrees,DateUTC
12:02 AM,28.4,24.8,86,29.93,8.0,WSW,13.8,-,N/A,,Overcast,240,2013-02-06 05:02:00
12:53 AM,28.0,25.0,88,29.98,7.0,WSW,11.5,-,N/A,,Overcast,250,2013-02-06 05:53:00
1:32 AM,28.4,26.6,93,29.96,6.0,West,15.0,-,N/A,,Overcast,260,2013-02-06 06:32:00
1:50 AM,28.4,26.6,93,29.97,6.0,West,16.1,-,N/A,,Overcast,260,2013-02-06 06:50:00
1:53 AM,28.9,26.1,89,30.00,6.0,West,16.1,-,N/A,,Overcast,260,2013-02-06 06:53:00
2:06 AM,28.4,26.6,93,29.97,6.0,West,15.0,-,N/A,,Overcast,260,2013-02-06 07:06:00
2:53 AM,28.9,26.1,89,30.03,6.0,West,16.1,-,N/A,,Overcast,260,2013-02-06 07:53:00
3:14 AM,28.4,26.6,93,30.01,5.0,West,15.0,-,N/A,,Overcast,280,2013-02-06 08:14:00
3:23 AM,28.4,26.6,93,30.02,6.0,West,19.6,-,N/A,,Overcast,280,2013-02-06 08:23:00
3:53 AM,28.9,26.1,89,30.05,6.0,WNW,21.9,26.5,N/A,,Overcast,290,2013-02-06 08:53:00
4:19 AM,28.4,24.8,86,30.04,7.0,NNW,19.6,28.8,N/A,,Overcast,330,2013-02-06 09:19:00
4:53 AM,26.1,21.0,81,30.09,10.0,NNW,18.4,-,N/A,,Overcast,330,2013-02-06 09:53:00
5:38 AM,24.8,19.4,80,30.10,10.0,NNW,16.1,-,N/A,,Overcast,340,2013-02-06 10:38:00
5:53 AM,25.0,19.0,78,30.14,10.0,NNW,13.8,-,N/A,,Overcast,340,2013-02-06 10:53:00
6:40 AM,24.8,17.6,74,30.15,10.0,NNW,13.8,-,N/A,,Overcast,340,2013-02-06 11:40:00
6:53 AM,24.1,16.0,71,30.19,10.0,NNW,15.0,-,N/A,,Overcast,340,2013-02-06 11:53:00
7:53 AM,24.1,14.0,65,30.23,10.0,North,15.0,-,N/A,,Overcast,350,2013-02-06 12:53:00
8:53 AM,24.1,14.0,65,30.27,10.0,NNW,12.7,-,N/A,,Overcast,340,2013-02-06 13:53:00
9:53 AM,24.1,14.0,65,30.28,10.0,North,6.9,-,N/A,,Partly Cloudy,350,2013-02-06 14:53:00
10:53 AM,26.1,14.0,60,30.30,10.0,North,5.8,-,N/A,,Clear,10,2013-02-06 15:53:00
11:53 AM,27.0,14.0,58,30.30,10.0,North,3.5,-,N/A,,Clear,10,2013-02-06 16:53:00
12:53 PM,27.0,14.0,58,30.30,10.0,North,3.5,-,N/A,,Clear,10,2013-02-06 17:53:00
1:53 PM,27.0,14.0,58,30.31,10.0,Calm,Calm,-,N/A,,Clear,0,2013-02-06 18:53:00
2:53 PM,27.0,14.0,58,30.31,10.0,Calm,Calm,-,N/A,,Clear,0,2013-02-06 19:53:00
3:53 PM,27.0,14.0,58,30.31,10.0,NNE,3.5,-,N/A,,Clear,30,2013-02-06 20:53:00
4:53 PM,26.1,15.1,63,30.32,10.0,NNE,6.9,-,N/A,,Clear,30,2013-02-06 21:53:00
5:53 PM,23.0,16.0,74,30.30,10.0,NE,4.6,-,N/A,,Clear,50,2013-02-06 22:53:00
6:53 PM,21.9,17.1,82,30.34,10.0,NE,6.9,-,N/A,,Clear,40,2013-02-06 23:53:00
7:53 PM,21.9,18.0,85,30.35,10.0,ENE,3.5,-,N/A,,Clear,60,2013-02-07 00:53:00
8:53 PM,23.0,12.9,65,30.35,10.0,ENE,4.6,-,N/A,,Clear,70,2013-02-07 01:53:00
9:53 PM,24.1,16.0,71,30.33,10.0,East,4.6,-,N/A,,Clear,80,2013-02-07 02:53:00
11:53 PM,24.1,14.0,65,30.27,10.0,SE,5.8,-,N/A,,Clear,140,2013-02-07 04:53:00